Moses Lake, WA

2:39 PM PDT on May 22, 2017 (GMT -0700)
Grant County International

Weather History for KMWH - October, 2013

Change the Weather History Date:

Tuesday, October 15, 2013

  Actual Average Record
Temperature  
Mean Temperature 44 °F 50 °F  
Max Temperature 62 °F 63 °F 76 °F (2015)
Min Temperature 26 °F 36 °F 25 °F (1984)
Degree Days  
Heating Degree Days 21 15  
Month to date heating degree days 229 186  
Since 1 July heating degree days 331 336  
Cooling Degree Days 0 0  
Month to date cooling degree days 0 0  
Year to date cooling degree days 948 614  
Moisture  
Dew Point 28 °F    
Average Humidity 54    
Maximum Humidity 81    
Minimum Humidity 27    
Precipitation  
Precipitation 0.00 in 0.02 in 0.35 in (2006)
Month to date precipitation 0.01 0.26  
Year to date precipitation 5.25 6.08  
Sea Level Pressure  
Sea Level Pressure 30.39 in    
Wind  
Wind Speed 5 mph (NE)    
Max Wind Speed 12 mph    
Max Gust Speed 15 mph    
Visibility 9 miles    
Events      
T = Trace of Precipitation, MM = Missing Value Source: NWS Daily Summary

Daily Weather History Graph

Daily Weather History Graph

Search for Another Location

Airport or City:

Trip Planner

Search our weather history database for the weather conditions in past years. The results will help you decide how hot, cold, wet, or windy it might be!

Date:

Astronomy

Oct. 15, 2013 Rise Set
Actual Time 7:16 AM PDT 6:09 PM PDT
Civil Twilight 6:45 AM PDT 6:39 PM PDT
Nautical Twilight 6:09 AM PDT 7:15 PM PDT
Astronomical Twilight 5:34 AM PDT 7:50 PM PDT
Moon 4:27 PM PDT (10/15) 3:31 AM PDT (10/15)
Length of Visible Light 11h 54m
Length of Day
10h 52m
Waxing Gibbous, 88% of the Moon is Illuminated
Oct 15
Waxing Gibbous
Oct 18
Full
Oct 26
Last Quarter
Nov 3
New
Nov 9
First Quarter

Hourly Weather History & Observations

Time (PDT) Temp. Windchill Dew Point Humidity Pressure Visibility Wind Dir Wind Speed Gust Speed Precip Events Conditions
12:52 AM 34.0 °F 28.8 °F 25.0 °F 70% 30.43 in 6.0 mi North 5.8 mph - 0.00 in   Haze
1:52 AM 35.1 °F 29.3 °F 25.0 °F 67% 30.43 in 8.0 mi North 6.9 mph - N/A   Clear
2:52 AM 30.9 °F 25.2 °F 24.1 °F 76% 30.57 in 8.0 mi NNW 5.8 mph - N/A   Clear
3:52 AM 30.9 °F 23.5 °F 24.1 °F 76% 30.41 in 8.0 mi North 8.1 mph - N/A   Clear
4:52 AM 30.9 °F 26.2 °F 24.1 °F 76% 30.57 in 9.0 mi North 4.6 mph - N/A   Clear
5:52 AM 28.0 °F 21.7 °F 23.0 °F 81% 30.42 in 10.0 mi North 5.8 mph - N/A   Clear
6:52 AM 27.0 °F 21.6 °F 21.9 °F 81% 30.43 in 8.0 mi NNE 4.6 mph - N/A   Clear
7:52 AM 30.0 °F 24.1 °F 25.0 °F 82% 30.43 in 8.0 mi North 5.8 mph - N/A   Clear
8:52 AM 37.9 °F 33.5 °F 28.0 °F 68% 30.44 in 10.0 mi NNE 5.8 mph - N/A   Clear
9:52 AM 44.1 °F - 30.0 °F 58% 30.43 in 9.0 mi Calm Calm - N/A   Clear
10:52 AM 48.0 °F - 30.0 °F 50% 30.42 in 10.0 mi Calm Calm - N/A   Clear
11:52 AM 53.1 °F - 30.0 °F 41% 30.39 in 10.0 mi Variable 3.5 mph - N/A   Clear
12:52 PM 57.9 °F - 30.0 °F 35% 30.51 in 10.0 mi SW 4.6 mph - N/A   Clear
1:52 PM 60.1 °F - 28.0 °F 30% 30.32 in 10.0 mi SSW 5.8 mph - N/A   Clear
2:52 PM 62.1 °F - 28.0 °F 28% 30.45 in 10.0 mi SSW 8.1 mph - N/A   Clear
3:52 PM 61.0 °F - 26.1 °F 26% 30.42 in 10.0 mi SSE 9.2 mph - N/A   Clear
4:52 PM 60.1 °F - 27.0 °F 28% 30.40 in 10.0 mi South 6.9 mph - N/A   Clear
5:52 PM 57.0 °F - 28.0 °F 33% 30.25 in 10.0 mi South 4.6 mph - N/A   Clear
6:52 PM 51.1 °F - 30.9 °F 46% 30.24 in 10.0 mi SE 5.8 mph - N/A   Clear
7:52 PM 48.9 °F - 32.0 °F 52% 30.23 in 10.0 mi Calm Calm - N/A   Clear
8:52 PM 46.9 °F - 32.0 °F 56% 30.20 in 10.0 mi ESE 3.5 mph - N/A   Clear
9:52 PM 48.0 °F - 30.9 °F 52% 30.35 in 10.0 mi Calm Calm - N/A   Clear
10:52 PM 44.1 °F 42.5 °F 30.9 °F 60% 30.33 in 10.0 mi ESE 3.5 mph - N/A   Clear
11:52 PM 42.1 °F 39.2 °F 30.9 °F 65% 30.18 in 10.0 mi North 4.6 mph - N/A   Clear